ZL1KPB-13 Weather Reports


Display with metric or nautical units.
time (UTC)temp
F
wind
direction
speed
MPH
gust
MPH
rain 1hr
in
rain 24hr
in
rain mn
in
humidity
%
barometer
mb
20260505014019 65 98 2.0 4.0 0.00 0.00 0.00 64 1035.0
20260505013135 64 123 1.0 3.0 0.00 0.00 0.00 64 1035.1
20260505012155 64 135 1.0 3.0 0.00 0.00 0.00 64 1035.2
20260505011108 64 135 2.0 3.0 0.00 0.00 0.00 63 1035.3
20260505010105 64 79 0.0 2.0 0.00 0.00 0.00 64 1035.5
20260505005100 64 55 2.0 4.0 0.00 0.00 0.00 63 1035.6
20260505004058 64 126 1.0 2.0 0.00 0.00 0.00 63 1035.9
20260505003053 64 0.0 0.0 0.00 0.00 0.00 63 1036.0
20260505002049 64 112 1.0 2.0 0.00 0.00 0.00 63 1036.2
20260505001047 64 70 1.0 2.0 0.00 0.00 0.00 62 1036.2
20260505000041 63 45 1.0 2.0 0.00 0.00 0.00 66 1036.4
20260504235038 63 69 1.0 2.0 0.00 0.00 0.00 66 1036.5
20260504234035 63 81 2.0 3.0 0.00 0.00 0.00 65 1036.6
20260504233031 63 140 1.0 3.0 0.00 0.00 0.00 63 1036.7
20260504232048 65 117 1.0 4.0 0.00 0.00 0.00 58 1036.8
20260504231024 65 147 3.0 5.0 0.00 0.00 0.00 57 1036.9
20260504230042 68 103 2.0 4.0 0.00 0.00 0.00 56 1036.9
20260504225039 67 123 2.0 4.0 0.00 0.00 0.00 57 1036.9
20260504224114 64 140 2.0 4.0 0.00 0.00 0.00 61 1036.8
20260504223132 62 153 1.0 3.0 0.00 0.00 0.00 64 1036.8
20260504222127 62 132 1.0 2.0 0.00 0.00 0.00 62 1036.8
20260504221104 65 135 2.0 3.0 0.00 0.00 0.00 55 1036.8
20260504220100 65 23 1.0 2.0 0.00 0.00 0.00 55 1036.9
20260504215057 67 23 1.0 2.0 0.00 0.00 0.00 53 1036.8
20260504214114 67 23 1.0 3.0 0.00 0.00 0.00 52 1036.8
20260504213050 67 23 1.0 2.0 0.00 0.00 0.00 52 1036.7
20260504212047 68 23 1.0 2.0 0.00 0.00 0.00 53 1036.7
20260504211043 67 23 0.0 2.0 0.00 0.00 0.00 57 1036.7
20260504210101 64 23 0.0 2.0 0.00 0.00 0.00 61 1036.6
20260504205038 63 23 0.0 2.0 0.00 0.00 0.00 68 1036.6
20260504204033 61 23 0.0 2.0 0.00 0.00 0.00 77 1036.5
20260504203029 57 0.0 0.0 0.00 0.00 0.00 82 1036.5
20260504202106 54 0.0 0.0 0.00 0.00 0.00 85 1036.4
20260504201022 52 0.0 0.0 0.00 0.00 0.00 87 1036.3
20260504200020 51 0.0 0.0 0.00 0.00 0.00 87 1036.1
20260504195136 51 0.0 0.0 0.00 0.00 0.00 88 1036.0
20260504194112 50 0.0 0.0 0.00 0.00 0.00 88 1035.8
20260504193109 49 0.0 0.0 0.00 0.00 0.00 88 1035.8
20260504192105 49 0.0 0.0 0.00 0.00 0.00 87 1035.8
20260504191123 49 0.0 0.0 0.00 0.00 0.00 87 1035.6
20260504190100 49 0.0 0.0 0.00 0.00 0.00 87 1035.5
20260504185057 49 0.0 0.0 0.00 0.00 0.00 87 1035.6
20260504184051 50 0.0 0.0 0.00 0.00 0.00 89 1035.5
20260504183048 51 0.0 0.0 0.00 0.00 0.00 91 1035.5
20260504182106 51 0.0 1.0 0.00 0.00 0.00 93 1035.7
20260504181041 50 248 1.0 3.0 0.00 0.00 0.00 94 1035.8
20260504180038 50 0.0 0.0 0.00 0.00 0.00 94 1035.7
20260504175037 49 0.0 0.0 0.00 0.00 0.00 94 1035.6
20260504174030 49 0.0 0.0 0.00 0.00 0.00 94 1035.6
20260504173029 48 0.0 0.0 0.00 0.00 0.00 94 1035.6
20260504172023 48 0.0 0.0 0.00 0.00 0.00 93 1035.7
20260504171021 48 0.0 0.0 0.00 0.00 0.00 93 1035.7
20260504151038 50 0.0 0.0 0.00 0.00 0.00 96 1036.4
20260504150119 49 0.0 1.0 0.00 0.00 0.00 96 1036.4
20260504141018 48 0.0 0.0 0.00 0.00 0.00 94 1037.1
20260504140112 47 0.0 1.0 0.00 0.00 0.00 93 1037.3
20260504110112 51 0.0 0.0 0.00 0.00 0.00 79 1037.6
20260504081113 51 225 3.0 4.0 0.00 0.00 0.00 86 1037.6
20260504080147 51 228 2.0 4.0 0.00 0.00 0.00 87 1037.4
20260504070130 52 228 3.0 4.0 0.00 0.00 0.00 86 1036.9
20260504050105 56 0.0 0.0 0.00 0.00 0.00 72 1036.1
20260504045144 57 0.0 0.0 0.00 0.00 0.00 71 1036.1
20260504044059 58 0.0 0.0 0.00 0.00 0.00 71 1036.1
20260504043054 59 0.0 1.0 0.00 0.00 0.00 71 1036.2
20260504042051 59 0.0 1.0 0.00 0.00 0.00 70 1036.1
20260504041048 59 0.0 1.0 0.00 0.00 0.00 69 1036.1
20260504040044 59 248 0.0 2.0 0.00 0.00 0.00 68 1036.1
20260504035040 60 248 1.0 2.0 0.00 0.00 0.00 67 1036.1
20260504034037 61 248 3.0 4.0 0.00 0.00 0.00 63 1036.1
20260504033036 63 297 0.0 3.0 0.00 0.00 0.00 63 1036.1
20260504032032 64 248 1.0 4.0 0.00 0.00 0.00 61 1036.1
20260504031027 63 248 1.0 2.0 0.00 0.00 0.00 62 1036.0
20260504030044 64 117 1.0 2.0 0.00 0.00 0.00 60 1036.0
20260504025042 65 247 1.0 4.0 0.00 0.00 0.00 60 1036.0
20260504024016 65 248 1.0 3.0 0.00 0.00 0.00 61 1035.9
20260504023113 62 128 1.0 2.0 0.00 0.00 0.00 67 1035.9
20260504022109 62 135 2.0 3.0 0.00 0.00 0.00 65 1036.0
20260504021106 62 248 2.0 4.0 0.00 0.00 0.00 63 1036.0
20260504015059 62 248 3.0 6.0 0.00 0.00 0.00 63 1036.2